This is the latest recevied weather packets stored in our database for station/object KK4PWJ-13. If no packets are shown the sender has not sent any weather packets the latest 1 day(s).
| Time | Temp. | Humidity | Pressure | Rain* | Wind** | Luminosity | Snow |
|---|---|---|---|---|---|---|---|
| 1778023566 | 24.44° C | 41% | 1011.4 hPa | 0 mm | 0 m/s | 13 W/m² | - |
| 1778023263 | 24.44° C | 43% | 1011.4 hPa | 0 mm | 0.45 m/s, 125° | 14 W/m² | - |
| 1778022960 | 25° C | 40% | 1011.3 hPa | 0 mm | 0 m/s | 16 W/m² | - |
| 1778022659 | 25° C | 39% | 1011.3 hPa | 0 mm | 0 m/s | 18 W/m² | - |
| 1778022356 | 25° C | 40% | 1011.2 hPa | 0 mm | 0.45 m/s, 82° | 19 W/m² | - |
| 1778022052 | 25° C | 38% | 1011.3 hPa | 0 mm | 0.45 m/s, 160° | 22 W/m² | - |
| 1778021749 | 25° C | 39% | 1011.4 hPa | 0 mm | 0.45 m/s, 117° | 29 W/m² | - |
| 1778021445 | 25° C | 38% | 1011.3 hPa | 0 mm | 0.45 m/s, 156° | 33 W/m² | - |
| 1778021142 | 25.56° C | 38% | 1011.4 hPa | 0 mm | 0.45 m/s, 152° | 37 W/m² | - |
| 1778020840 | 25.56° C | 37% | 1011.5 hPa | 0 mm | 0.45 m/s, 160° | 51 W/m² | - |
| 1778020536 | 25° C | 37% | 1011.5 hPa | 0 mm | 0.45 m/s, 65° | 59 W/m² | - |
| 1778020232 | 25° C | 37% | 1011.5 hPa | 0 mm | 0.45 m/s, 154° | 54 W/m² | - |
| 1778019929 | 25° C | 38% | 1011.5 hPa | 0 mm | 0.45 m/s, 102° | 41 W/m² | - |
| 1778019625 | 25.56° C | 37% | 1011.3 hPa | 0 mm | 1.34 m/s, 125° | 35 W/m² | - |
| 1778019323 | 25.56° C | 36% | 1011.4 hPa | 0 mm | 0.45 m/s, 104° | 33 W/m² | - |
| 1778019019 | 25.56° C | 35% | 1011.7 hPa | 0 mm | 0.45 m/s, 158° | 36 W/m² | - |
| 1778018716 | 25.56° C | 37% | 1011.7 hPa | 0 mm | 0 m/s | 70 W/m² | - |
| 1778018414 | 25.56° C | 36% | 1011.8 hPa | 0 mm | 0.89 m/s, 251° | 90 W/m² | - |
| 1778018112 | 25.56° C | 37% | 1011.6 hPa | 0 mm | 0.45 m/s, 124° | 77 W/m² | - |
| 1778017809 | 25.56° C | 36% | 1011.6 hPa | 0 mm | 0.45 m/s, 209° | 46 W/m² | - |
| 1778017508 | 25.56° C | 36% | 1011.9 hPa | 0 mm | 1.34 m/s, 172° | 47 W/m² | - |
| 1778017204 | 25.56° C | 38% | 1011.7 hPa | 0 mm | 0.45 m/s, 126° | 56 W/m² | - |
| 1778016902 | 26.11° C | 39% | 1011.7 hPa | 0 mm | 0.45 m/s, 141° | 52 W/m² | - |
| 1778016598 | 26.11° C | 36% | 1011.5 hPa | 0 mm | 0.89 m/s, 140° | 68 W/m² | - |
| 1778016294 | 26.11° C | 37% | 1011.7 hPa | 0 mm | 0.45 m/s, 148° | 61 W/m² | - |
* Rain latest hour (hover to see other rain measurements)
** Current wind speed in m/s (hover to see current wind gust speed)